Location: Gerlach
(40.6516°N, 119.3568°W)
Time: 05:00:13
(UTC-07:00)

Explorer 11/Cluster Stage 4 - Pass Details

Date: 07 February 2023
Orbit: 466 x 1241 km, 28.8° (Epoch: 02 April)

Event Time Altitude Azimuth Distance (km) Brightness Sun altitude
Exits shadow 04:28:55 31° 192° (SSW) 1,908 8.3 -29.3°
Maximum altitude 04:30:16 33° 173° (S) 1,869 8.4 -29.0°
Drops below altitude 10° 04:37:13 10° 114° (ESE) 3,189 10.4 -27.7°
Sets 04:40:30 0° 105° (ESE) 4,169 11.4 -27.1°
